Home   Weather   Caversham   Past weeks

Flag for United Kingdom Past Weather in Caversham, England, United Kingdom — Yesterday and Last 2 Weeks

Now
61 °F

Sprinkles. Partly sunny.


Feels Like: 61 °F
Forecast: 51 / 62 °F
Wind: 17 mph from West

Location: Benson

Current Time: Sep 25, 2016 at 3:07:19 PM

Latest Report: Sep 25, 2016 at 2:00 PM


Visibility: 19 mi

Pressure: 29.98 "Hg

Humidity: 65%

Dew Point: 49 °F

Location of CavershamLocation

Past Weather in Caversham — Graph

°F

Caversham Temperature Yesterday

Maximum temperature yesterday: 70 °F (at 1:00 PM)
Minimum temperature yesterday: 51 °F (at 12:00 AM)
Average temperature yesterday: 62 °F

High & Low Weather Summary for the Past Weeks

 TemperatureHumidityPressure
High83 °F (Sep 13, 12:00 PM)100% (Sep 11, 1:00 AM)30.28 "Hg (Sep 11, 1:00 AM)
Low41 °F (Sep 23, 4:00 AM)48% (Sep 11, 3:00 PM)29.75 "Hg (Sep 25, 4:00 AM)
Average61 °F81%30.01 "Hg
* Reported Sep 10 1:00 PM — Sep 25 1:00 PM, Caversham, Weather by CustomWeather, © 2016

Note: Actual official high and low records may vary slightly from our data, if they occured in-between our weather recording intervals... More about our weather records

Advertising

Caversham Weather History for the Previous 24 Hours

Scroll right to see more
 ConditionsComfort  
Time TempWeatherWind HumidityBarometerVisibility
1:00 PM
Sun, Sep 25
63 °FPartly sunny.18 mph60%29.96 "Hg19 mi
12:00 PM62 °FPartly sunny.15 mph69%29.95 "Hg19 mi
11:00 AM61 °FPartly sunny.14 mph71%29.93 "Hg16 mi
10:00 AM60 °FOvercast.13 mph81%29.90 "Hg16 mi
9:00 AM58 °FOvercast.8 mph87%29.88 "Hg12 mi
8:00 AM57 °FLight rain. Overcast.8 mph91%29.86 "Hg12 mi
7:00 AM57 °FCool.9 mph90%29.83 "Hg19 mi
6:00 AM56 °FCool.3 mph94%29.81 "Hg22 mi
5:00 AM59 °FCool.18 mph85%29.79 "Hg9 mi
4:00 AM64 °FMild.14 mph83%29.75 "Hg10 mi
3:00 AM63 °FMild.13 mph83%29.77 "Hg11 mi
2:00 AM65 °FMild.17 mph74%29.78 "Hg15 mi
1:00 AM64 °FMild.14 mph69%29.79 "Hg16 mi
12:00 AM64 °FMild.13 mph67%29.82 "Hg17 mi
11:00 PM
Sat, Sep 24
64 °FMild.12 mph66%29.84 "Hg17 mi
10:00 PM65 °FMild.13 mph64%29.86 "Hg17 mi
9:00 PM66 °FMild.17 mph59%29.87 "Hg18 mi
8:00 PM65 °FMild.14 mph61%29.88 "Hg17 mi
7:00 PM66 °FMild.14 mph62%29.90 "Hg17 mi
6:00 PM67 °FMild.14 mph64%29.91 "Hg16 mi
5:00 PM68 °FMild.15 mph56%29.93 "Hg19 mi
4:00 PM69 °FMild.15 mph57%29.95 "Hg19 mi
3:00 PM69 °FMild.16 mph56%29.97 "Hg19 mi
Weather by CustomWeather, © 2016

See weather overviewHow to use our weather pages